EHI
15 17 21 25 25 23 23 22 22 20 18 15 13 10 6 4 6 7 9 9 9 7 5 4 3 3 2 1 0 0 0 0 0 0 0 0 0 0 0 0 0 1 1
21 23 26 31 34 32 29 27 24 22 20 17 13 8 5 4 5 7 8 8 9 8 7 5 4 4 3 2 0 0 1 1 1 1 0 0 0 0 0 0 0 0 1
30 32 36 41 45 44 39 34 29 26 24 21 15 9 5 4 4 6 8 8 9 10 9 8 7 7 6 5 3 2 2 3 3 1 0 0 0 0 0 0 0 0 0
36 39 42 47 52 52 46 38 33 30 28 26 21 13 8 5 4 5 8 9 10 11 11 11 11 10 9 8 6 4 3 4 3 2 0 0 0 0 0 0 0 0 0
39 39 41 47 54 57 52 43 38 34 30 29 26 20 12 7 5 5 7 8 9 11 13 13 13 11 10 8 7 5 4 3 3 2 1 1 0 0 0 0 0 0 0
40 37 38 45 54 60 59 49 42 37 32 29 27 22 16 11 8 6 7 8 8 9 12 13 13 12 10 8 7 6 4 3 3 3 3 2 1 0 0 0 0 0 0
40 39 40 45 52 59 59 52 44 38 33 29 27 23 19 15 11 9 9 8 7 7 9 12 14 13 12 9 7 5 3 2 2 2 2 2 1 1 1 1 1 1 1
44 44 44 47 50 53 53 52 47 41 36 32 28 23 20 18 14 11 9 9 7 6 7 10 13 14 13 10 7 4 2 2 1 1 1 1 1 2 2 2 2 2 2
47 48 48 48 46 45 47 51 51 46 40 36 30 24 21 20 17 12 9 8 7 6 7 10 12 13 12 11 8 5 3 2 2 1 1 1 1 3 3 3 3 3 2
47 48 49 47 43 41 44 49 51 49 43 37 31 26 23 21 18 14 11 10 8 7 9 10 11 12 12 11 9 6 4 3 4 3 3 2 3 3 3 3 3 3 2
40 43 47 48 44 43 44 46 49 49 45 40 33 29 25 22 20 17 14 12 10 9 9 10 11 12 12 10 7 5 4 4 5 5 4 3 2 2 3 3 3 3 2
33 37 45 50 48 46 45 46 47 48 46 42 37 32 26 23 21 20 17 16 15 12 9 8 10 12 11 10 8 6 5 7 7 7 4 2 1 1 1 2 2 2 1
32 36 44 49 47 45 47 47 46 46 45 44 41 35 29 26 25 23 20 18 19 16 12 10 12 12 11 11 9 8 8 9 10 8 5 3 2 1 0 1 1 1 0
38 38 42 45 44 44 46 47 46 44 43 44 44 39 33 30 28 25 20 18 21 21 18 15 15 14 12 12 11 9 8 9 10 8 5 5 4 2 0 0 0 0 0
45 41 39 41 42 41 41 43 43 42 41 42 43 41 37 33 31 26 20 19 21 22 20 19 17 15 13 11 10 9 7 7 6 5 5 5 4 2 0 0 0 0 0
45 41 37 38 39 37 35 36 37 38 38 38 40 41 40 38 35 29 24 21 21 20 18 18 17 14 11 8 7 7 6 4 4 4 5 4 3 1 1 1 1 0 0
40 37 34 35 36 34 32 31 31 34 35 34 35 37 39 39 37 32 26 23 22 20 18 17 16 14 10 6 4 4 4 4 4 4 5 4 2 1 2 2 1 0 0
35 34 33 33 32 31 29 28 29 31 32 32 31 32 33 36 35 30 25 23 22 20 17 15 13 11 8 5 3 4 4 5 5 6 6 6 4 2 2 2 1 0 0
32 33 33 32 30 28 28 28 27 27 28 29 29 29 29 31 32 28 23 21 21 19 16 14 11 8 6 4 3 3 4 4 5 6 6 5 4 2 2 2 2 1 0
31 32 33 32 29 27 28 28 26 24 24 25 26 27 28 29 28 25 23 22 21 19 17 13 10 8 5 3 3 3 3 3 4 5 6 5 3 2 1 2 2 1 1
32 33 34 32 27 26 26 25 23 21 20 21 23 26 27 26 24 23 23 22 21 19 16 13 10 8 5 3 2 2 2 3 3 4 5 5 3 1 1 1 2 2 2
33 34 33 29 23 21 21 19 18 17 17 19 21 22 22 21 20 20 22 23 22 20 17 12 9 7 4 2 1 1 1 1 2 2 3 3 3 1 0 0 1 1 1
31 30 28 24 21 18 16 15 14 14 15 16 16 16 17 17 17 17 19 21 20 18 15 11 7 5 3 2 0 0 0 0 1 1 1 1 1 1 0 0 0 0 0
26 25 23 21 19 16 13 12 12 13 14 14 13 12 13 13 13 12 13 14 14 13 11 8 5 4 3 2 1 1 1 1 1 1 0 0 0 0 0 0 0 1 1
22 22 20 17 14 11 10 10 11 11 13 14 13 12 11 9 8 6 6 6 6 6 5 4 3 2 2 2 2 2 2 2 2 2 1 1 1 1 1 0 0 1 2
20 19 17 14 10 8 7 9 10 10 12 14 14 13 10 7 5 3 2 1 2 1 1 2 1 1 1 1 2 3 3 3 3 3 2 2 2 2 2 1 0 1 3
Wind_Speed
10 10 10 10 9 8 7 7 6 5 4 2 2 1 1 1 1 2 3 4 3 3 3 1 1 1 1 1 1 1 1 0 0 1 2 2 1 0 1 2 2 4 4
9 10 10 10 10 10 8 7 7 6 5 3 2 2 2 1 2 2 2 3 3 3 3 3 2 2 1 1 1 1 1 1 1 2 1 2 3 2 1 1 3 3 2
14 13 12 11 11 10 10 8 7 6 5 4 2 1 1 1 1 0 1 3 4 4 3 3 3 3 2 2 2 2 2 1 1 1 3 2 2 2 2 1 1 2 2
12 12 12 12 12 11 9 8 7 6 5 5 4 4 3 2 3 2 2 2 3 4 3 3 3 3 2 2 2 2 2 2 1 1 1 2 3 2 1 2 0 1 1
14 14 13 13 12 10 9 8 7 6 5 5 5 4 3 2 1 1 1 2 2 2 3 3 3 3 2 3 2 2 2 2 2 1 1 1 1 2 2 1 1 1 0
11 11 10 9 8 8 8 7 7 6 5 5 5 5 4 3 2 1 1 1 1 1 2 3 3 3 3 3 3 2 2 2 2 1 1 2 1 2 2 2 1 0 1
11 10 9 10 10 10 9 8 7 6 6 5 4 5 4 4 4 3 2 2 1 1 3 2 2 2 3 3 2 2 2 2 2 2 1 1 2 2 2 2 2 1 1
11 12 11 11 11 11 10 9 9 7 7 6 5 4 4 3 2 3 2 2 2 2 2 2 2 2 2 2 2 1 2 1 2 2 2 1 1 2 2 3 3 1 0
11 12 11 11 10 10 10 11 10 7 7 6 5 4 3 3 2 2 2 2 2 2 2 1 1 1 2 2 2 1 1 1 1 1 1 1 1 1 1 2 3 3 2
9 9 10 10 10 9 9 9 9 9 7 6 5 4 3 3 2 2 1 1 1 1 1 1 1 1 1 1 2 1 1 1 1 1 0 0 1 1 1 1 2 2 3
9 9 9 9 8 8 8 9 8 7 6 6 5 4 3 3 2 1 1 1 0 0 1 1 1 2 2 2 2 2 1 1 0 0 0 1 1 0 0 1 1 2 3
8 8 8 8 7 7 7 7 8 8 7 6 5 4 4 3 3 2 1 1 0 0 0 1 1 1 1 1 2 1 1 1 1 1 0 1 0 0 0 1 1 1 2
6 6 7 8 7 7 6 7 7 7 6 6 5 4 3 3 3 2 2 1 1 1 1 1 1 1 1 1 2 2 1 1 1 0 1 1 0 0 1 1 1 1 2
8 7 6 7 7 6 6 5 5 6 6 6 5 5 4 4 3 2 2 1 1 1 1 1 1 1 1 1 2 2 2 2 1 1 1 1 1 1 1 2 2 2 3
7 8 7 6 7 6 5 5 3 4 5 6 5 5 4 3 3 2 2 2 2 1 1 1 1 1 1 1 2 2 3 2 2 1 1 2 3 4 3 3 2 3 3
8 8 8 8 8 8 6 5 4 3 4 5 5 4 3 3 3 2 2 2 2 1 2 1 1 1 1 2 2 2 2 2 2 1 1 2 3 4 5 5 5 4 4
8 8 8 7 7 7 7 6 4 4 5 5 4 4 3 3 3 3 3 2 2 2 2 1 2 2 2 2 3 3 3 3 2 2 2 2 3 3 3 5 6 5 5
8 6 7 7 6 6 6 6 4 4 5 5 4 4 3 3 3 3 3 2 2 2 2 2 2 2 2 3 3 3 3 4 3 3 2 2 2 3 4 4 4 3 3
7 6 6 6 6 7 7 7 5 4 4 4 4 4 4 3 3 2 2 2 3 3 2 2 2 3 3 4 4 3 3 3 3 3 3 3 3 4 5 5 4 3 2
7 6 6 6 6 5 6 7 5 4 4 4 4 3 4 4 3 3 2 2 3 3 2 3 3 3 2 4 5 4 3 3 2 2 3 4 4 4 5 4 4 3 1
8 8 8 7 5 6 7 7 5 4 4 4 4 4 4 4 3 3 3 3 3 3 3 3 2 2 2 3 4 4 2 3 2 2 1 2 4 5 5 4 2 2 1
7 8 8 6 5 6 7 6 4 3 4 5 5 4 3 3 4 4 3 3 3 4 3 3 2 2 2 2 2 4 4 3 3 2 1 1 4 4 4 3 3 3 3
6 6 8 7 4 5 7 6 3 4 5 6 5 4 3 3 3 4 4 3 2 2 2 2 1 1 1 2 3 4 5 4 2 2 3 3 4 4 3 3 4 3 3
6 6 7 7 5 4 5 5 5 5 6 6 5 4 4 4 3 3 3 3 2 1 1 1 1 0 0 1 1 1 2 4 3 2 3 4 5 4 3 3 2 2 2
4 5 6 6 5 4 4 4 5 5 5 5 4 4 4 4 4 3 3 2 1 2 3 2 2 2 1 2 2 2 2 2 2 3 2 2 2 2 2 2 2 2 2
5 5 5 5 4 4 4 3 4 5 6 4 4 3 3 3 3 3 3 5 3 2 2 2 2 1 2 2 2 3 4 4 6 4 2 1 1 1 1 1 1 1 1
Wind_Direction
175 170 166 162 156 159 159 163 162 166 155 144 148 154 184 196 190 194 191 189 187 175 163 170 172 164 172 204 186 149 100 313 102 67 6 348 347 213 193 186 181 191 197
166 169 166 163 164 167 168 166 169 172 171 172 172 175 178 201 202 204 194 196 193 186 182 182 184 181 177 213 200 141 137 245 148 127 88 359 348 339 258 191 192 195 185
174 174 170 171 168 171 173 173 175 174 177 171 151 126 82 33 15 263 225 213 202 198 195 185 185 188 178 201 213 179 163 196 257 152 145 148 225 301 327 292 192 172 166
175 176 174 174 176 178 173 170 172 172 173 163 155 157 163 190 218 212 219 230 215 207 199 195 190 194 192 205 222 193 182 162 214 271 178 171 169 161 309 335 336 185 181
178 179 179 179 178 174 170 169 166 168 168 166 168 166 177 203 222 213 213 237 243 228 212 201 193 198 203 211 221 207 196 176 182 191 190 119 122 146 155 223 309 8 332
176 176 176 167 168 167 167 168 164 167 167 167 171 175 182 190 181 200 203 224 254 259 241 207 201 206 206 210 213 214 198 194 193 186 170 165 169 184 166 177 192 206 289
168 167 168 170 169 173 174 171 170 174 174 173 182 184 184 179 182 194 201 206 219 251 253 225 204 208 215 209 204 206 210 199 195 200 198 187 190 175 160 148 170 190 250
171 173 175 173 172 176 175 174 179 180 176 177 192 192 181 178 190 195 193 204 211 227 242 222 205 205 204 204 188 192 211 192 199 212 198 186 209 178 163 160 156 145 327
173 172 172 167 169 171 174 178 177 178 182 187 186 183 179 174 183 196 201 215 224 233 231 204 191 200 198 195 170 179 210 184 192 211 205 201 230 200 176 164 162 158 175
171 169 167 166 170 172 171 172 175 180 185 186 184 180 178 177 183 179 186 199 229 260 170 180 209 233 219 199 172 176 193 151 164 165 149 261 253 213 182 178 171 161 164
170 170 169 165 161 159 162 169 173 171 173 177 177 177 169 173 170 166 191 196 200 171 149 166 179 209 222 211 173 174 157 142 137 276 186 250 240 186 218 162 149 155 145
169 166 160 150 150 154 160 167 170 171 176 176 170 175 170 159 158 164 181 180 178 131 152 144 153 190 201 170 155 156 141 150 177 238 194 277 274 108 174 148 146 144 139
148 144 143 143 149 155 162 165 168 172 170 166 166 167 163 163 170 179 176 159 147 101 73 103 110 112 112 119 128 134 126 127 158 213 176 257 109 78 86 106 115 117 114
140 138 143 146 147 148 149 154 168 167 162 159 159 162 171 169 171 169 158 149 149 138 136 124 136 133 126 125 126 126 118 102 70 47 71 75 126 141 132 110 107 110 106
138 142 151 151 146 140 139 137 153 164 159 153 158 170 172 153 145 149 158 148 141 146 153 124 89 84 108 116 132 133 129 118 93 55 61 73 89 98 112 117 122 118 115
144 147 151 150 149 147 145 137 140 146 138 148 158 160 153 145 147 154 142 128 124 120 107 99 95 79 65 61 97 131 125 117 116 97 54 67 66 79 85 90 99 118 133
145 148 150 154 153 150 149 148 156 155 150 152 152 149 149 150 153 144 127 123 118 103 100 102 95 86 67 77 93 107 115 103 93 83 69 72 72 83 90 80 73 73 95
143 147 150 152 150 146 143 144 146 147 148 147 146 146 144 143 143 135 135 135 127 114 110 100 102 94 58 67 87 96 94 87 76 71 77 87 72 78 95 95 81 69 60
144 144 141 137 139 142 142 135 138 140 137 140 142 146 143 141 134 134 142 140 126 113 106 101 96 90 55 61 82 94 92 85 68 58 60 91 94 84 92 97 93 71 37
133 131 127 118 123 128 126 122 130 138 145 148 145 142 139 138 140 142 132 125 123 123 109 83 81 96 84 74 84 97 102 94 75 55 48 68 90 93 95 102 105 96 30
132 129 122 120 129 130 125 125 133 147 146 127 117 112 116 120 120 111 102 105 113 106 97 89 70 66 70 80 87 97 112 121 106 88 58 49 90 96 94 100 112 138 137
122 125 118 118 125 124 122 124 136 150 127 117 110 105 104 109 104 99 94 96 112 112 108 98 72 45 34 55 86 107 118 122 118 121 114 85 95 93 89 84 83 92 91
120 120 122 120 119 126 130 133 146 132 124 120 114 112 108 98 103 109 107 95 95 111 118 116 108 29 17 32 61 100 114 114 113 118 117 107 93 81 71 65 81 87 84
125 124 120 119 123 125 130 142 148 141 128 125 123 116 106 92 80 82 89 99 95 103 125 140 149 143 49 20 26 90 104 98 94 90 86 82 74 65 55 51 57 64 92
128 129 131 134 138 135 133 141 138 128 122 125 124 115 108 106 91 74 62 86 118 199 176 177 179 172 200 242 207 167 152 145 140 116 78 59 57 53 38 34 34 42 62
134 133 131 135 140 137 135 141 140 132 132 131 132 131 129 124 114 109 71 43 43 37 101 142 162 208 212 210 176 157 147 137 135 114 107 112 114 125 123 102 44 44 96